Regional Weather Roundup
Issued by NWS

Home | Current Version | Previous Version | Graphics & Text | Print | Product List | Glossary On
Versions: 1 2 3 4 5 6 7 8 9 10 11 12 13 14 15 16 17 18 19 20 21 22 23 24 25 26 27 28 29 30 31 32 33 34 35 36 37 38 39 40 41 42 43 44 45 46 47 48 49 50
000
ASUS45 KSLC 292010
RWRUT

UTAH REGIONAL WEATHER ROUNDUP
NATIONAL WEATHER SERVICE SALT LAKE CITY UT
200 PM MDT TUE JUL 29 2014

UTZ001>011-023>025-292100-

NORTHERN UTAH

CITY           SKY/WX    TMP DP  RH WIND       PRES   REMARKS
HILL AFB       PTSUNNY   72  62  71 S5        30.24S
LOGAN          CLOUDY    67  62  84 CALM      30.23S
OGDEN          CLOUDY    72  61  68 VRB5      30.22S
PROVO AIRPORT  PTSUNNY   66  63  88 NW10      30.23R
SALT LAKE CITY TSTM      68  63  84 W6        30.22R
VERNAL         PTSUNNY   76  57  51 SE7       30.22F
WENDOVER       CLOUDY    75  55  50 SE10      30.20F
HEBER CITY     CLOUDY    66  61  82 CALM      30.24R
WEST JORDAN    CLOUDY    66  66 100 E7        30.24R

$$

UTZ012>022-026-027-292100-

SOUTHERN UTAH

CITY           SKY/WX    TMP DP  RH WIND       PRES   REMARKS
BRYCE CANYON   LGT RAIN  63  54  72 CALM      30.42R
CEDAR CITY     CLOUDY    75  53  46 VRB3      30.24F
MILFORD        CLOUDY    72  52  49 NW13      30.20S
MOAB/CYNLANDS  SUNNY     82  59  45 VRB3      30.15F
PRICE          CLOUDY    73  51  46 NW10      30.26F
ST GEORGE      CLOUDY    93  54  26 NW9G18    30.06F HX  91

$$

REGIONAL REPORTS     COLORADO/ARIZONA

CITY           SKY/WX    TMP DP  RH WIND       PRES   REMARKS
CRAIG, CO      LGT RAIN  58  58 100 SW7       30.33F
GRAND JUNCTION PTSUNNY   73  58  59 SW5       30.22F
RIFLE          CLOUDY    69  58  67 E3        30.29F
MONTROSE       MOSUNNY   75  58  55 CALM      30.27F
CORTEZ         SUNNY     80  56  43 SW10      30.26F
PAGE, AZ       MOSUNNY   88  51  28 W10G18    30.14S
GRAND CANYON   PTSUNNY   81  48  31 VRB5      30.34F
KINGMAN        MOSUNNY   95  51  22 W14G20    30.12F HX  92
FLAGSTAFF      PTSUNNY   78  48  34 S14G22    30.38F

$$

REGIONAL REPORTS    NEVADA/IDAHO/WYOMING

CITY           SKY/WX    TMP DP  RH WIND       PRES   REMARKS
LAS VEGAS, NV  MOSUNNY   94  57  28 SW6       29.97F HX  92
ELY            PTSUNNY   71  50  47 VRB3      30.33F
ELKO           PTSUNNY   84  47  27 SW9       30.19F
POCATELLO, ID  CLOUDY    72  60  66 N6        30.23S
BURLEY         PTSUNNY   82  53  36 NE12      30.16F
EVANSTON, WY   LGT RAIN  57  56  96 SE8       30.36F
ROCK SPRINGS   CLOUDY    67  51  56 NE17      30.34F

$$


USA.gov is the U.S. government's official web portal to all federal, state and local government web resources and services.